Back to catalog

STARLINK-5768

AliveCommunicationsVLEO
NORAD 57145·PAYLOAD·🇺🇸 United States

Launched Jun 23, 2023 from Cape Canaveral Space Force Station

Loading…

Next Passes (next 24 hours)

TLE

FreshSource: CelesTrak SupGP

Epoch: Sep 14, 2026, 14:12 UTC

1 57145C 23090AW  26257.59215278  .00008405  00000+0  30435-3 0  2578
2 57145  42.9995 276.6625 0001556 270.3727  25.3906 15.27581554    10

Track STARLINK-5768 in real time with AllMySat

Download on the App Store